www.pogodaiklimat.ru

Погода и климат >> Архив погоды >> Испания >> Madrid


АРХИВ ПОГОДЫ в Madrid

Время (UTC), дата Ветер
(напр.,м/с)
 
Видим.   Явления Облачность Т
(С)
Тd
(С)
f
(%)
Тe
(С)
Тes
(С)
Комфортность P
(гПа)
Po
(гПа)
Тmin
(С)
Tmax
(С)
R
(мм)
R24
(мм)
S
(см)
14 17.06 С 3 30 км 1/1
[Cu hum Ci fib]
+39.3 +4.9 12 +36 +49 очень
жарко
1009.6 947.9
13 17.06 Ю 3 30 км 1/1 2000 м
[Cu hum Ci sp]
+38.3 +10.6 19 +37 +53 опасность
солнечного
удара
1010.5 948.8
15 17.06 С 3 30 км 1/1 1000 м
[Cu hum Ci fib]
+39.9 +5.1 12 +37 +47 очень
жарко
1008.7 947.2
16 17.06 СЗ 5 30 км 1/1 1000 м
[Cu hum Ci fib]
+39.2 +3.7 11 +36 +41 очень
жарко
1008.1 946.5
17 17.06 З 3 30 км 1/1 1000 м
[Cu med, cong Ci fib]
+39.2 +3.7 11 +36 +40 очень
жарко
1007.7 946.1
18 17.06 С 6 30 км 3/3 1500 м
[Cb cap]
+38.6 +2.5 11 +35 +36 очень
жарко
1007.6 945.9 +40.1
20 17.06 С 3 30 км 3/0
[Ci sp]
+33.1 +2.7 15 +30 +30 жарко 1009.3 946.5
19 17.06 СЗ 6 30 км 4/3 1000 м
[Cu med, cong Ac cuf Ci sp]
+37.2 +2.7 12 +34 +34 очень
жарко
1008.0 946.1
21 17.06 СЗ 2 30 км н/о +31.3 +4.5 18 +29 +29 жарко 1010.7 947.4
22 17.06 СВ 3 30 км 4/0
[Ci fib]
+31.4 +4.8 19 +29 +29 жарко 1011.5 948.2
23 17.06 СВ 1 30 км 3/0
[Ci fib]
+28.3 +4.3 22 +27 +27 жарко 1012.3 948.4
00 18.06 С 2 30 км 5/0
[Ci sp]
+27.1 +5.5 25 +26 +26 жарко 1012.4 948.2
02 18.06 В 1 30 км 3/0
[Ci sp]
+24.0 +6.2 32 +24 +24 комфорт 1012.8 947.9
01 18.06 СЗ 3 30 км 3/0
[Ci sp]
+25.6 +6.0 28 +25 +25 комфорт 1012.5 948.0
03 18.06 СВ 1 30 км 1/0
[Ci sp]
+22.7 +6.4 35 +23 +23 комфорт 1012.9 947.7
04 18.06 С 1 30 км 1/0
[Ci sp]
+21.7 +6.4 37 +22 +22 комфорт 1013.2 947.8
05 18.06 С 2 30 км 1/0
[Ci sp]
+20.6 +7.0 41 +22 +22 комфорт 1013.9 948.3
06 18.06 С 2 30 км 1/0
[Ci sp]
+22.7 +7.3 37 +24 +25 комфорт 1013.8 948.6 +20.2
08 18.06 СВ 1 30 км н/о +28.5 +10.3 32 +29 +29 жарко 1012.4 948.6
07 18.06 С 2 30 км 1/0
[Ci sp]
+25.5 +7.9 33 +26 +29 жарко 1013.1 948.6
09 18.06 ЮВ 3 30 км ясно +30.1 +12.1 33 +31 +41 жарко 1011.8 948.3
10 18.06 Ю 2 30 км ясно +31.9 +12.4 30 +32 +48 жарко 1011.1 948.1
11 18.06 ЮВ 2 30 км ясно +33.7 +13.1 29 +34 +53 опасность
солнечного
удара
1010.3 947.7
12 18.06 Ю 3 30 км ясно +35.3 +12.4 25 +35 +54 опасность
солнечного
удара
1009.3 947.1
14 18.06 Ю 3 24 км 1/1 1500 м
[Cu hum Ci fib]
+38.0 +6.2 14 +35 +48 очень
жарко
1007.5 945.8
13 18.06 ЮЗ 3 30 км 1/1 1500 м
[Cu hum]
+36.5 +10.4 21 +36 +50 очень
жарко
1008.4 946.4
15 18.06 ЮЗ 4 26 км 1/1 1500 м
[Cu hum Ci fib]
+38.1 +7.6 16 +36 +45 очень
жарко
1006.8 945.1
16 18.06 Ю 3 30 км 1/1 1500 м
[Cu hum Ci fib]
+38.8 +2.7 11 +36 +43 очень
жарко
1006.3 944.7
17 18.06 ЮЗ 3 30 км 3/1 1500 м
[Cu hum Ci fib]
+38.7 +2.6 11 +35 +39 очень
жарко
1006.0 944.4
18 18.06 Ю 2 30 км 3/1 1500 м
[Cu hum Ci sp]
+38.3 +4.7 13 +35 +37 очень
жарко
1006.2 944.5 +39.0
20 18.06 ЮВ 4 30 км 5/1 1200 м
[Cb calv Ac trans Ci fib]
+33.8 +8.1 21 +32 +32 жарко 1008.0 945.5
19 18.06 Ю 3 30 км 4/1 1500 м
[Cu med, cong Ci sp]
+36.9 +3.2 12 +34 +34 очень
жарко
1006.7 944.8
21 18.06 ЮВ 10 30 км 6/1 1500 м
[Cb calv Ac trans Ci fib]
+31.7 +8.6 24 +31 +31 жарко 1009.7 946.6
22 18.06 Ю 12 30 км 8/1
[Cb calv Ac trans Ci fib]
+31.2 +9.4 26 +31 +31 жарко 1009.9 946.7
23 18.06 Ю 7 30 км 8/1
[Cb calv Ac trans Ci fib]
+30.5 +9.0 26 +30 +30 жарко 1011.3 947.9
00 19.06 Ю 7 30 км 8/1
[Sc Ac trans Ci sp]
+29.7 +9.0 28 +29 +29 жарко 1011.1 947.5
02 19.06 Ю 4 30 км н/о +28.0 +9.4 31 +28 +28 жарко 1012.2 948.3
01 19.06 Ю 5 30 км н/о +29.2 +9.0 28 +29 +29 жарко 1011.6 948.0
03 19.06 В 3 30 км 6/0
[Ac trans Ci fib]
+25.9 +10.9 39 +27 +27 жарко 1013.1 948.7
04 19.06 В 2 30 км 6/0
[Ac trans Ci fib]
+24.7 +11.7 44 +26 +26 жарко 1013.7 949.0
05 19.06 ЮВ 3 30 км 3/0
[Ac trans Ci fib]
+23.8 +12.1 48 +26 +26 жарко 1014.5 949.6
06 19.06 В 1 30 км 1/0
[Ac trans Ci fib]
+24.3 +11.8 46 +26 +27 жарко 1015.3 950.4 +23.2
08 19.06 ЮВ 3 30 км 6/0
[Ac trans Ci fib]
+27.1 +11.8 39 +28 +33 жарко 1015.2 951.0
07 19.06 В 2 30 км 6/0
[Ac trans Ci fib]
+26.2 +11.5 40 +27 +31 жарко 1015.4 950.9
09 19.06 ЮВ 3 30 км 9/0
[Ac trans Cs]
+28.3 +11.5 35 +29 +36 жарко 1015.1 951.1
10 19.06 ЮВ 3 30 км 9/0
[Ac trans Cs]
+29.2 +11.7 34 +30 +41 жарко 1015.0 951.2
11 19.06 ЮВ 4 30 км 9/1 2000 м
[Cu hum Ac trans Ci fib]
+30.8 +11.2 30 +31 +38 жарко 1014.3 950.8
12 19.06 ЮВ 4 30 км 9/1 2000 м
[Cu hum Ac trans Ci fib]
+29.5 +12.1 34 +30 +38 жарко 1014.5 950.8
14 19.06 Ю 2 30 км 9/1 2000 м
[Cu hum Ac trans Ci fib]
+29.8 +11.7 33 +30 +39 жарко 1014.4 950.8
13 19.06 Ю 5 30 км н/о +29.4 +11.1 32 +30 +30 жарко 1014.6 950.9
15 19.06 Ю 3 30 км 9/1
[Cu hum Ac trans Ci fib]
+31.1 +11.2 29 +31 +37 жарко 1013.3 949.9
16 19.06 СЗ 3 30 км 9/1
[Cu hum Ac trans Ci fib]
+34.5 +9.5 22 +33 +38 жарко 1011.3 948.7
17 19.06 С 4 30 км 9/1
[Cu hum Ac trans Ci fib]
+34.4 +9.5 22 +33 +35 жарко 1011.1 948.5
18 19.06 С 3 30 км 8/1
[Cu hum Ac trans Ci fib]
+34.1 +6.8 18 +32 +33 жарко 1011.3 948.6 +35.5
20 19.06 С 3 30 км 8/3
[Cu Sc Ac As Ci fib]
+29.3 +9.4 29 +29 +29 жарко 1014.3 950.5
19 19.06 С 4 30 км 8/3
[Cu Sc Ac As Ci fib]
+30.5 +10.8 30 +31 +31 жарко 1012.8 949.3
21 19.06 СВ 6 30 км 8/3
[Cu Sc Ac As Ci fib]
+29.1 +10.5 31 +29 +29 жарко 1015.5 951.6
22 19.06 В 4 3000 м 9/3 2000 м
[Cb cap Ac As Ci sp]
+25.5 +12.7 45 +27 +27 жарко 1017.9 953.1
23 19.06 З 8 3000 м 9/4 2000 м
[Cb calv Ac As Ci sp]
+23.5 +13.5 53 +26 +26 жарко 1019.1 953.8
00 20.06 Ю 3 30 км 9/3 1500 м
[Cu med, cong Ac As Ci sp]
+23.7 +12.8 50 +26 +26 жарко 1018.7 953.5
02 20.06 СВ 1 30 км в посл. час дождь 9/3 2000 м
[Cu Sc Ac As Ci sp]
+21.3 +15.2 68 +24 +24 комфорт 1017.5 951.9
01 20.06 СВ 2 30 км 9/3 2000 м
[Cb calv Ac As Ci sp]
+22.6 +14.2 59 +26 +26 жарко 1017.9 952.5
03 20.06 С 2 30 км в посл. час дождь 9/3 2000 м
[Cu Sc Ac As Ci sp]
+21.0 +15.2 69 +25 +25 комфорт 1016.7 951.1
04 20.06 Ю 1 30 км 9/3 2000 м
[Cu Sc Ac As Ci sp]
+21.1 +14.6 66 +24 +24 комфорт 1016.9 951.3
05 20.06 ЮВ 1 30 км 8/1 1500 м
[Cu hum Ac und]
+21.0 +15.2 69 +25 +25 комфорт 1017.7 952.1
06 20.06 В 1 30 км 8/1 1500 м
[Cu hum Ac und]
+21.4 +15.1 67 +25 +25 комфорт 1017.9 952.3 +20.8
08 20.06 ЮВ 3 30 км 6/3 2000 м
[Sc Ac As Ci sp]
+26.4 +13.1 44 +28 +32 жарко 1017.6 953.1
07 20.06 С 2 25 км 6/3 2000 м
[Cu hum Ac As Ci fib]
+24.3 +14.9 56 +27 +29 жарко 1017.9 952.9
09 20.06 ЮВ 3 30 км 6/3 2000 м
[Sc Ac As Ci sp]
+26.5 +12.4 42 +28 +34 жарко 1017.5 953.0
10 20.06 Ю 3 30 км 8/0
[Ac und]
+27.7 +13.1 41 +29 +36 жарко 1017.2 953.0
11 20.06 Ю 2 30 км 9/0
[Ac As]
+27.8 +13.2 41 +30 +36 жарко 1017.0 952.8
12 20.06 В 1 30 км 8/1 1500 м
[Cu hum Ac und]
+29.6 +13.2 37 +31 +41 жарко 1016.2 952.5
14 20.06 З 2 30 км 6/3 1500 м
[Cu med, cong Ac und Ci sp]
+32.7 +12.3 29 +33 +42 жарко 1013.4 950.4
13 20.06 ЮВ 3 30 км 6/3 1500 м
[Cu hum Ac und]
+31.2 +12.9 33 +32 +41 жарко 1015.0 951.6
15 20.06 С 3 30 км 5/3 1500 м
[Cu med, cong Ac und Ci fib]
+33.0 +10.5 25 +32 +40 жарко 1012.7 949.7
16 20.06 СЗ 3 30 км 8/3 1500 м
[Cb cap Ac As Ci sp]
+33.2 +11.6 27 +33 +37 жарко 1012.2 949.3
17 20.06 СЗ 10 30 км 8/4 2000 м
[Cb cap Ac As Ci sp]
+29.6 +10.4 30 +30 +30 жарко 1013.5 949.9
18 20.06 СЗ 9 20 км слабый ливневой дождь, в посл. час гроза 9/4 2000 м
[Cb cap Ac As Cs]
+26.3 +13.0 44 +28 +28 жарко 1015.0 950.6 +34.0
20 20.06 СВ 2 30 км 10/0
[Ac cuf Cs]
+26.3 +10.8 38 +27 +27 жарко 1014.6 950.2
19 20.06 З 3 30 км в посл. час ливневой дождь 9/9 2000 м
[Frnb Ac cuf]
+28.4 +9.6 31 +28 +28 жарко 1013.6 949.7
21 20.06 С 4 30 км 9/0
[Ac As Cs]
+25.5 +12.4 44 +27 +27 жарко 1015.9 951.3
22 20.06 СВ 3 30 км 9/0
[Ac As Cs]
+26.1 +10.0 36 +27 +27 жарко 1015.8 951.3
23 20.06 В 1 30 км 8/0
[Ac As Cs]
+25.5 +13.5 47 +28 +28 жарко 1016.7 952.0
00 21.06 СЗ 3 30 км 8/0
[Ac As Cs]
+24.7 +13.1 48 +27 +27 жарко 1016.0 951.2
02 21.06 С 2 30 км ясно +21.4 +13.0 59 +24 +24 комфорт 1016.4 950.8
01 21.06 СЗ 2 30 км 4/0
[Ac As Ci sp]
+22.5 +13.2 56 +25 +25 комфорт 1016.3 951.0
03 21.06 С 2 30 км ясно +20.0 +13.4 66 +23 +23 комфорт 1016.5 950.7
04 21.06 С 1 30 км ясно +19.1 +13.4 70 +21 +21 комфорт 1016.8 950.8
05 21.06 СЗ 2 30 км ясно +18.8 +13.0 69 +20 +20 тепло 1017.3 951.2
06 21.06 С 3 20 км ясно +19.6 +13.1 66 +22 +22 комфорт 1017.0 951.1 +18.6
08 21.06 СЗ 2 29 км н/о +25.5 +13.5 47 +28 +28 жарко 1015.6 951.0
07 21.06 СЗ 2 30 км ясно +22.5 +13.1 55 +25 +29 комфорт 1016.4 951.1
09 21.06 С 1 30 км ясно +27.7 +13.7 42 +30 +43 жарко 1014.8 950.8
10 21.06 Ю 2 30 км ясно +30.1 +12.8 35 +31 +48 жарко 1014.2 950.6
11 21.06 ЮВ 2 25 км ясно +31.6 +12.3 31 +32 +51 опасность
солнечного
удара
1013.6 950.3
12 21.06 З 3 25 км 1/0
[Ci fib]
+33.3 +10.6 25 +33 +51 опасность
солнечного
удара
1012.6 949.7
14 21.06 З 2 20 км 1/1 1500 м
[Cu hum Ac trans]
+35.9 +8.8 19 +34 +50 очень
жарко
1010.4 948.2
13 21.06 ЮЗ 4 25 км 1/1 1500 м
[Cu hum Ac trans]
+35.0 +10.6 23 +34 +46 очень
жарко
1011.5 949.0
15 21.06 ЮЗ 2 25 км 5/1 2000 м
[Cu med, cong Ac trans Ci sp]
+36.4 +9.3 19 +35 +45 очень
жарко
1009.7 947.6
16 21.06 ЮЗ 3 25 км 5/1 2000 м
[Cu med, cong Ac trans Ci fib]
+35.7 +7.3 17 +33 +39 жарко 1009.9 947.6
17 21.06 З 4 25 км 8/1 2000 м
[Cu med, cong Ac As Ci sp]
+35.1 +8.2 19 +33 +35 жарко 1009.9 947.5
18 21.06 З 4 25 км 6/1 2000 м
[Cu med, cong Ac As Ci sp]
+34.7 +9.0 21 +33 +34 жарко 1010.1 947.6 +36.8
20 21.06 С 2 30 км 3/0
[Ac As Ci fib]
+30.4 +9.7 28 +30 +30 жарко 1011.7 948.2
19 21.06 СЗ 3 25 км 5/0
[Ac As Ci sp]
+33.5 +9.7 23 +33 +33 жарко 1010.6 947.9
21 21.06 СВ 1 30 км 3/0
[Ac As Ci fib]
+28.4 +10.0 32 +29 +29 жарко 1012.6 948.8
22 21.06 В 2 30 км 3/0
[Ac As Ci fib]
+28.5 +9.6 31 +29 +29 жарко 1012.8 949.0
23 21.06 СЗ 1 30 км 4/0
[Ac As Ci fib]
+26.2 +11.3 39 +27 +27 жарко 1014.0 949.6
00 22.06 ЮВ 2 30 км 3/0
[Ac As Ci fib]
+26.5 +10.4 36 +27 +27 жарко 1014.2 949.9
02 22.06 С 2 30 км 1/0
[Ci fib]
+23.8 +11.0 45 +25 +25 комфорт 1015.3 950.3
01 22.06 В 2 30 км 1/0
[Ci fib]
+26.0 +11.5 40 +27 +27 жарко 1014.4 950.0
03 22.06 СЗ 2 30 км 1/0
[Ci fib]
+22.6 +10.9 48 +25 +25 комфорт 1015.7 950.4
04 22.06 С 2 30 км 1/0
[Ci fib]
+21.5 +11.1 52 +23 +23 комфорт 1015.9 950.4
05 22.06 СЗ 1 30 км 1/0
[Ci fib]
+20.8 +10.7 52 +24 +24 комфорт 1016.4 950.8
06 22.06 С 2 30 км 1/0
[Ci fib]
+22.5 +11.6 50 +25 +26 комфорт 1016.6 951.2 +20.8
08 22.06 ЮВ 2 30 км ясно +27.5 +11.4 37 +28 +36 жарко 1016.1 951.9
07 22.06 С 1 30 км ясно +25.3 +12.2 44 +27 +31 жарко 1016.2 951.5
09 22.06 С 2 30 км ясно +28.9 +10.9 33 +29 +41 жарко 1015.7 951.8
10 22.06 Ю 2 30 км ясно +31.3 +10.9 28 +31 +47 жарко 1015.1 951.6
11 22.06 ЮЗ 3 30 км 3/0
[Ci fib]
+32.7 +11.6 28 +33 +49 жарко 1014.6 951.5
12 22.06 ЮЗ 2 30 км 5/0
[Ci sp]
+34.5 +11.7 25 +34 +52 опасность
солнечного
удара
1013.8 951.1
14 22.06 З 3 23 км 8/0
[Ci sp]
+36.5 +8.9 19 +35 +47 очень
жарко
1012.5 950.2
13 22.06 З 2 30 км 3/0
[Ci sp]
+35.2 +11.1 23 +35 +53 опасность
солнечного
удара
1013.1 950.6
15 22.06 Ю 3 30 км 6/1
[Cu hum Ci fib]
+36.9 +9.5 19 +35 +45 очень
жарко
1011.9 949.8
16 22.06 ЮЗ 4 30 км 6/1
[Cu hum Ci fib]
+37.5 +9.2 18 +36 +41 очень
жарко
1011.4 949.4
17 22.06 ЮЗ 4 30 км 5/1
[Cu hum Ci fib]
+36.5 +10.1 20 +35 +38 очень
жарко
1011.5 949.3
18 22.06 ЮЗ 3 25 км 5/1 1500 м
[Cu hum Ci fib]
+35.9 +11.2 22 +35 +36 очень
жарко
1011.5 949.2 +37.7
20 22.06 З 5 30 км 6/1 2000 м
[Cu hum Ac cuf Ci fib]
+33.5 +11.5 26 +33 +33 жарко 1012.5 949.7
19 22.06 З 4 25 км 6/1 2000 м
[Cu hum Ac cuf Ci fib]
+35.0 +12.2 25 +35 +35 очень
жарко
1011.7 949.3
21 22.06 З 6 28 км 6/1 2000 м
[Cu hum Ac cuf Ci fib]
+32.0 +12.3 30 +32 +32 жарко 1013.8 950.6
22 22.06 З 4 25 км 6/1 2000 м
[Cu hum Ac cuf Ci fib]
+31.0 +12.1 31 +31 +31 жарко 1014.8 951.3
23 22.06 З 2 30 км 3/0
[Ac trans Ci fib]
+29.7 +11.6 33 +30 +30 жарко 1015.2 951.5
00 23.06 С 2 30 км ясно +27.3 +10.1 34 +28 +28 жарко 1016.0 951.7
02 23.06 Ю 2 28 км 3/0
[Ac trans]
+24.2 +10.5 42 +25 +25 комфорт 1017.2 952.2
01 23.06 СЗ 1 30 км 3/0
[Ac trans Ci fib]
+25.3 +11.3 42 +27 +27 жарко 1016.8 952.0
03 23.06 ЮВ 2 25 км 3/0
[Ac trans Ci fib]
+22.6 +9.6 44 +24 +24 комфорт 1018.1 952.6
04 23.06 ЮВ 2 21 км 1/0
[Ci fib]
+22.6 +8.9 42 +24 +24 комфорт 1018.2 952.7
05 23.06 ЮВ 3 30 км ясно +21.6 +7.8 41 +23 +23 комфорт 1019.0 953.3
06 23.06 С 1 25 км ясно +22.2 +9.7 45 +24 +25 комфорт 1019.4 953.8 +21.1
08 23.06 Ю 4 20 км ясно +27.6 +9.3 32 +28 +33 жарко 1018.9 954.5
07 23.06 ЮВ 2 16 км ясно +25.6 +9.7 37 +26 +30 жарко 1019.1 954.2
09 23.06 Ю 3 17 км ясно +30.3 +8.2 25 +29 +39 жарко 1018.2 954.4
10 23.06 ЮЗ 5 21 км ясно +32.0 +6.4 20 +30 +38 жарко 1017.7 954.1
11 23.06 ЮЗ 5 30 км ясно +33.0 +4.9 17 +31 +40 жарко 1017.3 953.9
12 23.06 ЮЗ 5 30 км ясно +33.5 +5.1 17 +31 +41 жарко 1017.0 953.8
14 23.06 ЮЗ 6 30 км ясно +35.0 +1.6 12 +32 +39 жарко 1015.7 952.8
13 23.06 ЮЗ 6 25 км ясно +34.5 +4.4 15 +32 +40 жарко 1016.4 953.4
15 23.06 ЮЗ 6 27 км ясно +35.9 +1.7 12 +33 +38 жарко 1014.8 952.2
16 23.06 ЮЗ 5 30 км ясно +35.8 +1.6 12 +32 +37 жарко 1014.4 951.8
17 23.06 ЮЗ 7 30 км ясно +35.5 +2.6 13 +32 +34 жарко 1014.1 951.4
18 23.06 ЮЗ 7 30 км ясно +35.0 +1.3 12 +32 +32 жарко 1014.1 951.3 +36.3
20 23.06 ЮЗ 6 30 км ясно +31.9 -1.1 12 +29 +29 жарко 1015.4 951.9
19 23.06 ЮЗ 5 30 км ясно +33.6 -1.6 10 +30 +30 жарко 1014.9 951.7
21 23.06 ЮЗ 5 30 км ясно +30.5 -1.4 13 +27 +27 жарко 1016.3 952.5
22 23.06 ЮЗ 4 30 км ясно +29.1 +0.3 15 +26 +26 жарко 1016.9 952.8
23 23.06 ЮЗ 5 30 км ясно +28.1 +1.1 17 +26 +26 жарко 1017.5 953.1
00 24.06 ЮЗ 3 30 км ясно +27.5 +2.0 19 +26 +26 жарко 1017.6 953.1
02 24.06 СЗ 1 30 км 4/0
[Ci sp]
+21.2 +1.5 27 +21 +21 комфорт 1018.9 953.0
01 24.06 СВ 2 30 км ясно +24.5 +0.9 21 +23 +23 комфорт 1018.1 952.9
03 24.06 СВ 1 30 км 3/0
[Ci sp]
+19.1 +2.5 33 +20 +20 тепло 1019.4 953.0
04 24.06 СЗ 1 30 км 1/0
[Ci fib]
+18.1 +3.1 37 +19 +19 тепло 1019.3 952.7
05 24.06 С 2 30 км 1/0
[Ci sp]
+17.7 +3.3 38 +18 +18 по сезону 1019.5 952.8
06 24.06 С 2 30 км 3/0
[Ci sp]
+19.6 +3.4 34 +21 +22 комфорт 1019.6 953.3 +17.5
08 24.06 ЮВ 2 25 км 5/0
[Ci sp]
+26.1 +7.3 30 +26 +32 жарко 1017.9 953.2
07 24.06 С 1 30 км 1/0
[Ci sp]
+23.0 +3.8 29 +23 +27 комфорт 1018.9 953.4
09 24.06 Ю 3 н/о 6/0
[Cs]
+27.5 +6.8 27 +27 +35 жарко 1016.8 952.4
10 24.06 Ю 5 25 км 6/0
[]
+30.4 +6.0 22 +29 +35 жарко 1016.3 952.6
11 24.06 Ю 8 30 км 3/0
[Ci sp]
+33.0 +5.7 18 +31 +35 жарко 1015.2 952.0
12 24.06 Ю 7 30 км 3/0 2000 м
[Ci sp]
+34.0 +4.8 16 +31 +37 жарко 1014.5 951.5

 

Местоположение метеостанции Madrid (Испания): широта 40.45 долгота -3.55 высота над уровнем моря 582 м.

В архиве по умолчанию представлена погода в Madrid за последнюю неделю. Архивные данные за месяц целиком и за предыдущие месяцы, начиная с января 2011 года, Вы можете получить, выбрав интересующий диапазон дат из раскрывающегося списка и нажав кнопку "Ввод!".

Внимание! Время в таблицах - всемирное. Для получения местного времени необходимо прибавить поправку, которая в Madrid равна 1 ч.

Смотрите также архив погоды в соседних городах и на ближайших метеорологических станциях:

Погода в Madrid Airport (Испания) (22 км)
Погода в Guadalajara (Испания) (39 км)
Погода в Navacerrada (Испания) (54 км)
Погода в Segovia (Испания) (74 км)
Погода в Toledo (Испания) (76 км)
Погода в Avila (Испания) (100 км)
Погода в Cuenca (Испания) (128 км)
Погода в Molina de Aragon (Испания) (148 км)
Погода в Ciudad Real (Испания) (167 км)
Погода в Valladolid (Испания) (168 км)

Пояснения к столбцам:

Ветер - указаны скорость ветра в м/с - средняя за 10 мин, порывы в срок и между сроками (в фигурных скобках) и направление, откуда дует ветер: С - северный, СВ - северо-восточный, В - восточный, ЮВ - юго-восточный, Ю - южный, ЮЗ - юго-западный, З - западный, СЗ - северо-западный.
Видимость - горизонтальная дальность видимости в метрах или километрах. При видимости от 1 до 10 км при отсутствии осадков обычно наблюдается дымка, при ухудшении видимости до 1 км и менее - туман. В сухую погоду видимость может ухудшаться дымом, пылью или мглою.
Явления - указаны атмосферные явления, наблюдавшиеся в срок или в последний час перед сроком; фигурными скобками обозначены явления, наблюдавшиеся между сроками (за 1-3 часа до срока); квадратными скобками обозначены град или гололедные отложения с указанием их диаметра в мм.
Облачность - указаны через наклонную черту общая и нижняя облачность в баллах и высота нижней границы облаков в метрах; квадратными скобками обозначены формы облаков: Ci - перистые, Cs - перисто-слоистые, Cc - перисто-кучевые, Ac - высококучевые, As - высокослоистые, Sc - слоисто-кучевые, Ns - слоисто-дождевые, Cu - кучевые, Cb - кучево-дождевые. Подробнее классификацию облаков см. в Атласе облаков (PDF).
T - Температура воздуха - температура, измеренная на высоте 2 м над землей.
Td - Температура точки росы - температура, при понижении до которой содержащийся в воздухе водяной пар достигнет насыщения.
f - Относительная влажность воздуха - влажноcть воздуха, измеренная на высоте 2 м над землей.
Te - Эффективная температура - температура, которую ощущает одетый по сезону человек в тени. Характеристика душности погоды. При расчете учитывается влияние влажности воздуха и скорости ветра на теплоощущения человека.
Tes - Эффективная температура на солнце - температура, которую ощущает человек, с поправкой на солнечный нагрев. Характеристика знойности погоды. Зависит от высоты солнца над горизонтом, облачности и скорости ветра. Ночью, в пасмурную погоду, а также при ветре 12 м/с и более поправка равна нулю.
P - Атмосферное давление - приведенное к уровню моря атмосферное давление.
Po - Атмосферное давление - измеренное на уровне метеостанции атмосферное давление.
Tmin - Минимальная температура - минимум температуры воздуха на высоте 2 м над землей.
Tmax - Максимальная температура - максимум температуры воздуха на высоте 2 м над землей.
R - Количество осадков - Количество выпавших осадков за период времени, мм. При наведении курсора мыши на число - период времени, за который выпало указанное количество осадков.
R24 - Количество осадков - Количество выпавших осадков за 24 часа, мм.
S - Снежный покров - Высота снежного покрова, см. При наведении курсора мыши на число - состояние снежного покрова и степень покрытия местности в баллах.